Temperature
31 32 32 33 33 33 33 32 32 32 31 31 31 30 30 28 27 27 27 26 25 24 24 23 22 21 21 20 20 20 19 19 19 18 18 18 18 18 18 18 18 18 18 18
31 32 32 32 32 32 32 32 32 31 30 31 31 30 30 29 28 28 27 26 26 25 24 23 22 22 21 21 21 20 20 19 19 19 19 18 18 18 18 18 18 18 18 18
31 32 32 31 31 31 32 32 32 31 30 31 31 31 30 29 28 27 27 27 26 25 25 23 23 22 22 21 21 21 20 19 19 19 19 18 18 18 18 18 18 18 18 18
31 31 31 31 31 32 32 32 32 31 31 31 31 31 31 30 29 28 27 27 27 26 25 24 23 23 22 22 21 21 20 20 20 19 19 19 19 19 18 18 18 18 18 18
31 31 31 31 32 32 32 31 31 31 31 31 31 31 32 30 30 30 29 28 27 27 26 25 24 23 23 22 22 21 21 20 20 19 19 19 18 18 18 18 18 18 18 18
31 31 31 32 32 31 31 31 31 31 32 30 31 31 31 32 31 31 30 28 27 27 26 25 24 23 23 22 22 21 21 21 20 20 19 19 19 18 18 18 18 18 18 18
29 30 31 31 31 30 31 31 30 30 30 30 31 31 31 32 31 31 30 29 28 27 26 25 24 24 23 22 22 22 21 21 21 20 20 19 19 19 18 18 18 18 18 18
29 29 30 31 31 31 31 31 30 29 30 31 30 31 32 32 30 30 29 29 28 27 26 25 25 24 23 23 22 22 22 21 21 20 20 20 19 19 18 18 18 18 17 18
30 30 30 30 31 31 31 31 33 31 31 30 31 31 32 31 30 30 29 28 28 27 26 25 25 24 23 23 22 22 22 21 21 21 20 20 20 19 19 19 18 18 18 17
30 29 30 30 30 30 31 32 31 31 29 29 30 31 32 31 30 30 29 28 28 27 26 25 25 24 23 23 22 22 22 22 21 21 20 20 20 20 19 18 18 18 18 18
30 29 29 29 29 30 29 30 30 31 31 30 30 31 32 31 31 30 30 28 27 27 26 25 25 24 23 23 22 22 22 21 21 21 20 20 20 19 19 19 18 18 18 18
29 29 29 29 30 30 31 31 30 29 29 30 30 31 32 31 31 30 29 28 27 26 26 25 25 24 23 23 22 22 22 21 21 21 21 20 20 19 19 19 18 18 18 17
28 28 27 28 28 29 29 30 31 31 30 30 30 31 30 30 30 29 28 27 26 25 25 25 24 23 23 22 22 22 22 21 21 21 21 20 20 20 19 19 18 18 18 17
26 28 28 28 29 29 29 29 30 30 30 30 30 31 31 31 30 29 28 26 26 25 24 24 23 23 22 22 22 22 22 21 21 21 20 20 20 20 19 19 18 18 17 17
27 27 28 29 29 29 29 29 29 29 30 30 31 31 31 31 30 28 27 26 25 25 24 23 23 23 22 22 22 22 21 21 21 20 20 20 20 20 19 19 18 18 17 17
25 26 27 27 28 28 29 29 29 29 30 30 30 31 31 29 28 27 26 26 25 24 24 23 22 22 22 22 22 21 21 21 21 20 20 20 20 19 19 18 18 17 17 17
25 25 26 27 28 27 27 29 29 29 30 30 30 30 29 28 27 26 25 25 25 24 24 23 22 22 22 22 22 22 21 21 20 20 20 20 19 19 19 18 18 17 17 16
23 24 25 27 26 25 28 29 29 29 29 29 29 29 28 28 26 25 24 24 24 23 23 22 22 22 22 22 21 21 21 21 20 20 20 20 19 19 18 18 17 17 17 16
23 23 25 26 26 26 27 27 28 28 28 28 28 28 27 26 26 26 24 23 23 22 22 22 22 22 22 22 21 21 20 20 20 20 20 19 19 19 18 18 17 17 16 16
22 22 24 25 25 25 27 27 26 27 26 26 26 26 26 26 27 27 23 22 22 21 21 21 21 21 21 21 21 20 20 20 19 19 19 19 19 18 18 18 17 17 16 16
22 22 23 24 25 26 26 25 26 26 26 24 24 24 24 25 25 23 21 21 20 20 20 20 20 20 21 20 20 20 20 19 19 19 19 18 18 18 18 17 17 16 16 15
23 24 23 24 24 25 24 25 25 24 22 22 23 23 23 22 21 21 20 20 19 19 19 20 20 20 20 20 20 20 20 19 19 18 18 18 17 17 17 17 16 16 15 15
23 23 24 24 24 22 22 22 21 20 21 21 21 21 21 21 20 20 19 19 19 19 19 19 19 19 19 19 19 19 19 19 18 18 18 17 17 16 16 16 16 15 15 15
21 20 22 21 22 21 20 20 19 19 20 20 20 20 20 20 19 19 19 19 18 18 18 18 18 18 19 19 18 19 18 18 18 18 17 17 17 16 16 16 15 15 15 15
20 21 21 21 20 20 19 19 19 19 19 19 19 19 19 19 19 18 18 18 18 18 18 18 18 18 18 18 18 18 18 18 17 17 17 17 16 16 16 15 15 15 15 15
20 20 21 21 20 20 19 18 18 18 18 18 18 18 18 18 18 18 17 17 17 17 17 17 17 17 17 18 17 17 17 17 17 16 16 16 16 16 15 15 15 15 14 14
Wind_Speed
8 10 11 9 8 4 4 5 4 4 5 7 6 6 9 12 13 13 12 13 12 12 11 10 10 10 9 8 8 8 7 6 5 3 3 2 1 1 0 1 2 1 1 1
10 13 9 6 6 6 7 7 5 5 5 5 5 6 8 12 14 13 13 13 13 12 11 11 10 10 10 10 9 9 9 8 6 4 3 2 1 1 1 1 1 1 1 1
15 8 8 9 9 9 9 8 5 4 5 6 5 7 9 10 12 13 13 13 13 12 13 12 12 12 11 10 10 9 9 8 7 5 4 3 3 2 2 1 1 1 1 2
12 7 9 12 12 11 9 6 5 6 7 4 6 4 6 10 12 14 15 14 14 14 13 13 13 12 12 11 10 10 9 8 7 7 5 5 3 2 1 1 1 0 1 1
11 11 12 13 11 10 5 5 6 7 8 6 6 7 3 8 10 13 14 15 15 14 14 13 13 13 12 11 10 10 9 8 8 7 6 5 4 2 2 1 1 1 1 1
8 8 10 10 7 7 8 8 6 7 9 10 6 7 3 4 7 8 11 13 14 14 13 13 12 12 11 11 10 10 10 9 8 8 7 6 4 3 2 1 1 1 0 0
11 11 9 9 10 10 11 10 8 9 9 8 4 7 4 2 3 5 8 11 13 13 13 13 13 13 12 12 11 10 10 10 9 9 7 6 5 4 3 2 1 1 1 1
15 15 14 12 13 11 15 15 11 9 9 6 6 7 3 2 3 4 6 9 11 13 13 14 14 13 12 12 12 11 11 10 10 9 7 6 6 4 3 2 1 0 1 2
13 13 11 10 9 11 14 15 13 11 9 9 7 6 5 4 5 6 7 8 10 12 13 14 14 13 13 12 12 12 12 11 10 9 8 7 6 4 3 2 2 1 0 0
8 10 11 10 8 6 10 12 10 12 10 11 9 9 6 6 7 7 8 9 10 11 12 13 13 12 12 11 12 12 11 11 10 9 8 6 6 5 4 2 1 0 0 1
9 10 11 12 14 14 10 12 11 11 11 11 10 6 2 4 5 7 8 8 9 11 12 12 12 12 11 11 12 12 11 10 10 9 8 7 6 6 5 3 2 2 1 1
11 9 11 13 8 7 14 14 14 12 11 11 11 5 5 2 4 6 7 8 8 9 10 11 12 12 12 12 12 12 11 11 10 9 8 8 7 6 5 5 4 3 3 2
9 9 11 11 11 10 13 13 15 15 12 12 13 8 6 4 3 4 5 7 7 8 10 11 12 12 12 11 11 11 11 11 10 10 9 8 8 7 6 5 5 4 4 3
7 11 13 14 12 14 15 15 15 15 13 14 15 11 6 4 4 4 5 6 7 9 10 11 11 11 11 10 10 10 11 11 11 10 10 9 8 8 7 6 5 5 4 4
7 12 13 11 8 10 13 16 17 18 17 15 13 12 8 6 4 4 5 6 7 9 10 11 11 11 11 11 10 10 10 11 11 11 10 9 8 8 7 6 6 5 4 4
5 8 11 12 11 11 13 15 16 17 17 16 14 11 4 2 3 4 5 6 7 9 10 10 11 11 11 11 11 11 10 11 11 11 10 9 9 8 8 7 6 5 5 4
7 7 10 13 12 12 16 16 16 15 15 15 15 10 4 4 4 4 5 6 7 8 9 10 11 11 11 11 11 12 11 11 11 10 10 10 10 9 8 7 7 6 6 5
7 8 8 10 11 16 10 6 10 12 11 10 9 6 5 5 5 4 4 4 5 7 8 9 10 10 11 11 11 11 12 12 11 11 11 10 10 9 8 8 7 6 6 5
9 9 8 10 14 13 8 6 8 10 10 6 8 6 4 4 4 4 3 2 3 4 6 7 9 10 11 11 11 11 11 11 11 11 11 10 10 10 9 8 7 6 6 5
9 9 9 11 13 13 8 5 4 8 10 3 4 5 5 6 7 4 3 2 2 3 4 6 8 9 10 11 11 11 11 10 10 10 10 10 10 9 9 8 8 7 6 5
11 10 13 13 13 8 2 3 5 10 5 0 2 3 4 5 4 1 2 2 3 4 5 6 7 7 8 9 10 10 10 10 9 9 9 9 9 9 9 8 7 7 6 6
11 11 11 12 13 8 2 5 5 1 2 1 1 1 1 0 1 2 2 3 4 4 5 6 6 6 7 8 9 9 8 9 9 10 10 9 9 8 8 8 7 7 6 6
7 6 6 5 4 3 2 1 1 1 1 1 1 1 1 1 2 2 2 3 4 4 4 4 6 6 6 7 8 9 8 8 9 10 10 9 9 8 8 8 8 7 7 6
5 4 4 4 3 2 1 1 1 1 2 2 2 1 2 2 2 2 2 3 3 4 4 4 5 6 6 6 6 7 7 8 9 10 9 9 8 8 8 7 7 7 7 6
5 5 6 6 4 3 2 1 2 1 1 0 1 1 1 2 2 2 2 3 3 3 3 4 4 5 6 6 6 7 7 8 9 9 9 8 8 7 7 6 4 5 4 4
6 6 7 6 5 3 2 2 2 1 0 1 1 1 1 2 2 2 2 2 2 2 3 3 4 4 5 6 6 6 7 8 8 8 8 7 7 7 7 6 5 2 1 4
Wind_Direction
195 213 211 204 219 244 220 223 195 156 166 202 209 196 180 183 194 194 194 195 201 203 199 197 200 202 199 196 194 194 198 193 200 204 215 204 192 189 153 114 64 27 15 28
202 217 208 196 205 225 225 222 194 155 171 215 214 216 193 192 201 203 201 201 204 203 200 199 201 201 201 197 195 194 196 198 205 200 211 214 217 198 150 55 79 41 29 356
218 200 178 194 198 210 220 227 207 176 173 204 234 214 200 199 207 209 213 212 211 207 204 201 201 201 198 196 196 196 196 197 203 201 201 186 178 198 169 158 138 49 14 9
219 189 190 201 204 216 215 211 202 186 205 206 229 258 184 194 204 211 214 214 213 209 207 204 201 199 198 195 192 193 192 194 195 198 204 207 209 200 167 183 112 95 24 0
203 194 197 206 205 215 203 167 194 208 230 246 221 264 179 179 208 211 211 212 212 208 204 203 201 199 199 194 189 186 188 190 191 196 194 203 207 193 178 173 125 300 45 3
201 193 210 211 194 191 152 156 176 216 235 243 235 254 248 186 209 202 201 206 206 203 200 200 197 194 195 192 187 182 181 185 186 188 190 196 195 197 194 199 198 218 127 349
201 196 195 196 178 177 193 198 209 217 224 236 194 243 261 160 194 206 196 197 199 199 195 194 193 191 190 189 185 181 178 181 183 183 185 187 191 194 201 222 205 278 313 340
202 200 193 199 206 199 209 217 225 234 236 223 190 236 236 142 183 198 195 188 191 193 192 193 192 191 189 186 182 180 179 180 180 180 182 185 192 200 196 207 255 258 335 3
209 204 180 195 212 219 209 222 236 245 249 252 229 230 233 185 186 183 180 179 183 186 188 191 190 189 188 184 182 181 178 178 178 177 177 181 187 190 184 187 211 228 299 341
223 210 188 182 190 217 233 220 223 235 238 243 238 235 228 189 186 175 178 180 180 182 183 185 185 186 184 182 179 178 178 178 176 176 180 176 177 179 182 183 147 132 27 13
224 215 193 193 206 201 198 209 220 231 241 245 244 229 181 194 187 180 178 176 177 181 181 181 181 180 176 176 175 176 176 176 175 175 173 173 171 171 170 167 161 151 119 88
216 223 209 204 201 231 216 214 211 221 226 239 256 237 125 166 178 181 179 172 172 174 175 177 175 174 174 175 176 175 176 177 176 171 169 168 165 164 163 154 146 138 124 109
200 215 206 201 199 204 217 218 221 229 231 233 241 232 145 165 184 181 181 173 167 168 170 172 172 173 175 175 175 172 176 176 172 167 165 162 162 159 157 149 143 137 130 118
218 222 227 222 209 198 207 211 219 225 229 232 238 247 208 207 207 192 181 177 175 170 171 173 173 174 172 171 170 169 172 170 167 164 163 162 163 159 154 149 146 143 137 129
218 222 229 241 234 218 216 214 215 225 235 242 241 244 242 233 221 204 188 179 177 174 173 175 176 170 166 163 162 164 165 164 164 163 163 161 159 156 154 152 149 144 141 133
221 226 221 225 221 224 229 225 222 227 233 240 248 247 256 221 209 198 194 188 185 182 179 176 174 169 167 164 162 161 162 163 162 161 159 157 157 158 157 153 148 143 139 132
207 214 219 222 212 221 228 224 223 227 231 237 241 242 229 226 222 212 203 197 193 188 183 178 174 172 169 167 163 162 161 161 161 159 159 160 160 157 155 151 147 146 145 142
219 221 221 222 209 226 227 213 225 227 230 236 244 246 236 238 233 216 192 194 194 189 183 179 171 166 165 164 163 161 159 160 162 163 162 162 162 157 153 151 149 148 147 147
216 216 222 222 221 224 215 208 216 223 227 234 242 240 229 229 222 203 167 183 188 187 179 176 172 166 160 161 160 158 159 162 166 167 166 165 164 159 156 155 154 153 152 151
196 216 226 222 227 228 213 184 215 222 224 229 247 241 223 214 230 208 121 123 143 153 161 166 165 160 157 158 157 160 162 166 171 171 169 167 164 162 160 157 157 157 157 159
190 203 220 226 227 227 163 175 198 216 212 119 241 236 225 230 269 108 114 123 132 138 149 152 152 151 155 157 158 159 161 168 170 168 166 163 161 160 157 154 156 157 161 158
203 203 210 220 225 218 137 189 210 244 37 19 285 237 227 187 102 122 117 130 137 138 141 144 145 145 151 160 160 156 164 168 165 163 162 158 159 162 156 154 157 159 160 163
220 227 215 222 221 84 86 103 24 349 274 291 271 244 202 171 139 132 137 135 136 138 139 141 143 145 153 161 165 160 159 162 160 158 158 157 159 161 161 164 164 168 176 183
210 233 225 218 196 170 117 360 339 307 283 277 254 215 201 174 153 152 148 139 141 142 143 146 148 151 155 161 164 162 158 162 159 158 159 160 164 168 170 179 180 184 185 189
225 211 217 221 208 203 235 293 329 333 319 252 175 170 173 162 159 153 148 150 154 151 154 158 161 159 158 159 161 158 156 162 161 162 165 168 171 173 176 182 184 193 190 193
235 236 231 222 212 224 211 294 320 315 230 193 165 153 154 163 161 149 146 144 150 158 165 166 164 165 162 159 160 159 162 168 166 170 174 177 179 175 179 175 172 84 120 122
Height
1499 1497 1496 1494 1494 1495 1497 1500 1504 1506 1507 1509 1511 1513 1515 1521 1524 1526 1529 1532 1535 1537 1540 1543 1544 1546 1547 1548 1549 1551 1552 1553 1554 1555 1555 1556 1556 1556 1555 1555 1554 1554 1554 1553
1498 1496 1493 1494 1496 1497 1498 1502 1504 1506 1508 1508 1510 1511 1511 1517 1520 1523 1526 1529 1532 1535 1538 1540 1542 1544 1545 1546 1548 1549 1551 1552 1553 1554 1554 1554 1555 1555 1555 1554 1554 1554 1554 1553
1494 1491 1494 1496 1498 1500 1499 1500 1502 1506 1508 1507 1509 1510 1510 1513 1517 1521 1523 1526 1528 1531 1534 1537 1539 1541 1543 1545 1546 1548 1549 1551 1552 1553 1554 1554 1554 1554 1555 1554 1554 1554 1553 1553
1491 1492 1495 1496 1497 1497 1501 1496 1500 1505 1508 1507 1509 1513 1505 1506 1512 1515 1518 1521 1524 1527 1531 1534 1536 1539 1541 1543 1544 1546 1548 1549 1550 1551 1553 1553 1554 1555 1555 1555 1554 1554 1553 1553
1491 1492 1495 1496 1494 1495 1496 1497 1499 1502 1504 1506 1506 1510 1502 1503 1507 1508 1512 1516 1520 1523 1527 1530 1533 1536 1539 1541 1543 1544 1546 1547 1549 1550 1551 1552 1553 1554 1554 1554 1554 1553 1553 1552
1488 1492 1492 1491 1492 1495 1498 1500 1502 1502 1502 1516 1507 1511 1506 1497 1500 1501 1506 1511 1516 1520 1523 1527 1531 1534 1536 1539 1541 1543 1544 1546 1547 1549 1550 1551 1552 1552 1553 1553 1553 1554 1553 1553
1493 1491 1491 1492 1495 1498 1497 1503 1515 1519 1518 1514 1502 1509 1502 1493 1495 1499 1503 1508 1512 1516 1520 1524 1528 1531 1533 1536 1538 1541 1542 1544 1546 1547 1549 1550 1550 1551 1552 1553 1553 1553 1553 1553
1494 1495 1489 1489 1489 1493 1493 1495 1512 1523 1520 1508 1507 1507 1494 1492 1496 1499 1502 1505 1509 1513 1517 1521 1524 1528 1531 1534 1536 1539 1540 1542 1544 1546 1547 1548 1549 1551 1552 1551 1552 1552 1552 1552
1485 1489 1485 1487 1487 1487 1492 1491 1486 1498 1504 1509 1501 1497 1490 1491 1495 1498 1500 1503 1506 1510 1514 1518 1522 1525 1528 1531 1534 1537 1539 1541 1543 1545 1546 1547 1548 1549 1550 1550 1551 1551 1550 1551
1479 1488 1484 1487 1489 1490 1485 1485 1493 1499 1515 1518 1507 1501 1494 1491 1492 1495 1498 1501 1504 1508 1512 1515 1519 1522 1526 1529 1531 1535 1537 1539 1541 1543 1545 1546 1547 1548 1549 1549 1549 1549 1549 1549
1478 1486 1487 1487 1488 1488 1492 1492 1492 1494 1496 1510 1513 1501 1481 1486 1489 1492 1495 1499 1503 1506 1509 1513 1516 1520 1523 1526 1529 1532 1535 1537 1540 1542 1543 1545 1546 1547 1548 1548 1548 1548 1548 1548
1479 1481 1486 1484 1482 1482 1483 1485 1490 1501 1504 1500 1501 1495 1480 1484 1487 1491 1494 1498 1501 1504 1507 1511 1514 1518 1521 1524 1527 1530 1533 1536 1538 1540 1542 1543 1544 1546 1547 1547 1547 1548 1548 1548
1480 1483 1494 1494 1492 1488 1485 1483 1483 1484 1489 1496 1500 1493 1482 1484 1487 1491 1494 1497 1500 1503 1506 1509 1512 1515 1518 1521 1524 1527 1530 1533 1536 1538 1540 1542 1543 1544 1545 1546 1546 1547 1547 1547
1482 1480 1484 1487 1481 1479 1484 1485 1484 1484 1492 1492 1490 1484 1480 1482 1486 1490 1494 1497 1499 1502 1504 1507 1510 1513 1516 1519 1522 1525 1528 1531 1534 1536 1538 1540 1542 1543 1544 1545 1546 1546 1546 1547
1481 1481 1478 1475 1472 1473 1477 1480 1482 1483 1481 1485 1482 1480 1478 1481 1485 1490 1493 1495 1498 1500 1503 1505 1508 1511 1513 1516 1519 1523 1526 1529 1532 1534 1537 1539 1540 1542 1543 1544 1545 1545 1546 1546
1482 1481 1479 1480 1475 1476 1478 1476 1477 1479 1478 1478 1478 1478 1476 1482 1486 1489 1492 1494 1496 1498 1501 1503 1506 1508 1511 1514 1517 1520 1523 1526 1529 1532 1534 1537 1538 1540 1541 1542 1544 1544 1545 1545
1480 1482 1483 1480 1475 1479 1482 1473 1474 1475 1474 1475 1478 1477 1479 1482 1486 1488 1490 1492 1494 1497 1499 1502 1504 1506 1509 1512 1515 1518 1520 1524 1527 1530 1532 1534 1536 1538 1539 1541 1542 1543 1544 1544
1482 1483 1479 1477 1482 1494 1472 1466 1468 1471 1472 1472 1474 1476 1479 1482 1485 1488 1489 1491 1493 1495 1498 1500 1502 1505 1507 1510 1513 1516 1518 1521 1525 1527 1530 1532 1534 1536 1537 1539 1540 1541 1543 1543
1481 1482 1478 1477 1480 1477 1471 1469 1470 1473 1474 1474 1475 1476 1480 1482 1483 1485 1488 1490 1492 1494 1496 1498 1501 1503 1505 1508 1511 1514 1516 1519 1522 1525 1527 1529 1532 1533 1535 1536 1538 1540 1541 1542
1481 1481 1479 1477 1481 1481 1469 1467 1471 1473 1477 1476 1477 1477 1480 1481 1480 1481 1487 1488 1490 1492 1495 1497 1499 1501 1504 1506 1509 1512 1514 1517 1520 1523 1525 1526 1528 1531 1532 1534 1536 1538 1539 1540
1477 1479 1478 1476 1476 1468 1467 1470 1472 1479 1476 1477 1478 1479 1480 1480 1481 1484 1486 1488 1489 1491 1493 1495 1497 1499 1502 1504 1507 1509 1512 1515 1518 1520 1522 1524 1526 1528 1530 1532 1534 1535 1537 1538
1469 1470 1475 1472 1475 1473 1470 1470 1472 1474 1477 1478 1479 1480 1481 1482 1483 1484 1485 1487 1488 1490 1492 1494 1495 1497 1500 1502 1505 1507 1509 1512 1515 1517 1520 1521 1524 1526 1528 1530 1532 1534 1535 1536
1466 1466 1463 1467 1470 1472 1473 1474 1476 1477 1478 1478 1479 1480 1481 1482 1483 1484 1485 1486 1488 1489 1491 1492 1494 1496 1498 1500 1503 1505 1507 1510 1512 1514 1516 1519 1521 1524 1525 1527 1529 1531 1533 1535
1468 1470 1468 1470 1470 1473 1475 1476 1476 1477 1477 1478 1479 1480 1480 1481 1482 1483 1484 1485 1487 1488 1490 1492 1493 1495 1497 1499 1501 1503 1505 1507 1510 1512 1514 1516 1519 1521 1523 1525 1527 1529 1530 1532
1467 1468 1467 1469 1472 1473 1475 1475 1476 1476 1477 1477 1478 1479 1480 1480 1481 1482 1483 1484 1486 1487 1488 1490 1492 1493 1495 1497 1499 1501 1502 1505 1507 1509 1511 1514 1516 1518 1520 1522 1523 1525 1527 1528
1467 1467 1466 1466 1470 1471 1474 1475 1475 1475 1476 1477 1477 1478 1479 1480 1480 1481 1482 1483 1484 1485 1487 1488 1490 1491 1493 1495 1496 1498 1499 1502 1504 1506 1508 1511 1513 1515 1517 1519 1520 1521 1523 1524